User: anonymous   Login
Location: Santa Barbara
(34.4500°N, 119.7700°W)
Time: 01:49:12
(UTC-07:00)
Language:

Cosmos 1892 Rocket - Orbit

View from above orbital plane
View from above orbital plane
View from above satellite
View from above satellite

Ground track
Ground track

The orbit data is extracted from the following two-line orbital elements,

1 18422U 87088B   17174.96149924 +.00000059 +00000-0 +42479-5 0  9997
2 18422 082.5107 170.5308 0020993 059.3734 330.4218 14.82928453581731
Epoch (UTC): 23 June 2017 23:04:33
Eccentricity: 0.0020993
inclination: 82.5107°
perigee height: 605 km
apogee height: 635 km
right ascension of ascending node: 170.5308°
argument of perigee: 59.3734°
revolutions per day: 14.82928453
mean anomaly at epoch: 330.4218°
orbit number at epoch: 58173

The dashed part of the orbit path shows where the satellite is in the earth's shadow,  

DLR